| time (UTC) | temp C | wind direction | speed KPH | gust KPH | rain 1hr cm | rain 24hr cm | rain mn cm | humidity % | barometer mb |
| 20260507075518 | 21 | 177 | 4.8 | 9.7 | 0.00 | 0.00 | 0.00 | 55 | 1014.5 |
| 20260507074534 | 21 | 165 | 3.2 | 6.4 | 0.00 | 0.00 | 0.00 | 55 | 1014.5 |
| 20260507073531 | 21 | 159 | 3.2 | 9.7 | 0.00 | 0.00 | 0.00 | 53 | 1014.6 |
| 20260507072527 | 20 | 171 | 6.4 | 9.7 | 0.00 | 0.00 | 0.00 | 56 | 1014.7 |
| 20260507071523 | 20 | 164 | 3.2 | 9.7 | 0.00 | 0.00 | 0.00 | 56 | 1014.7 |
| 20260507070525 | 19 | 180 | 4.8 | 9.7 | 0.00 | 0.00 | 0.00 | 58 | 1014.7 |
| 20260507065555 | 19 | 176 | 6.4 | 14.5 | 0.00 | 0.00 | 0.00 | 58 | 1014.6 |
| 20260507064532 | 18 | 177 | 4.8 | 9.7 | 0.00 | 0.00 | 0.00 | 60 | 1014.7 |
| 20260507063528 | 18 | 161 | 3.2 | 11.3 | 0.00 | 0.00 | 0.00 | 61 | 1014.6 |
| 20260507062525 | 17 | 176 | 4.8 | 14.5 | 0.00 | 0.00 | 0.00 | 61 | 1014.7 |
| 20260507061521 | 17 | 170 | 6.4 | 11.3 | 0.00 | 0.00 | 0.00 | 62 | 1014.7 |
| 20260507060517 | 17 | 182 | 8.0 | 14.5 | 0.00 | 0.00 | 0.00 | 62 | 1014.8 |
| 20260507055553 | 16 | 171 | 4.8 | 11.3 | 0.00 | 0.00 | 0.00 | 63 | 1014.9 |
| 20260507054529 | 16 | 177 | 4.8 | 11.3 | 0.00 | 0.00 | 0.00 | 64 | 1015.0 |
| 20260507053526 | 16 | 165 | 6.4 | 14.5 | 0.00 | 0.00 | 0.00 | 64 | 1014.9 |
| 20260507052542 | 15 | 179 | 4.8 | 12.9 | 0.00 | 0.00 | 0.00 | 67 | 1014.9 |
| 20260507051518 | 15 | 180 | 8.0 | 14.5 | 0.00 | 0.00 | 0.00 | 67 | 1014.9 |
| 20260507050534 | 15 | 175 | 4.8 | 11.3 | 0.00 | 0.00 | 0.00 | 69 | 1014.8 |
| 20260507045530 | 14 | 165 | 6.4 | 9.7 | 0.00 | 0.00 | 0.00 | 69 | 1014.7 |
| 20260507044546 | 14 | 151 | 4.8 | 8.0 | 0.00 | 0.00 | 0.00 | 71 | 1014.7 |
| 20260507043522 | 13 | 159 | 6.4 | 9.7 | 0.00 | 0.00 | 0.00 | 72 | 1014.6 |
| 20260507042539 | 13 | 159 | 4.8 | 8.0 | 0.00 | 0.00 | 0.00 | 73 | 1014.5 |
| 20260507041555 | 13 | 152 | 4.8 | 8.0 | 0.00 | 0.00 | 0.00 | 74 | 1014.4 |
| 20260507040531 | 12 | 136 | 3.2 | 6.4 | 0.00 | 0.00 | 0.00 | 75 | 1014.5 |
| 20260507035527 | 11 | 135 | 3.2 | 6.4 | 0.00 | 0.00 | 0.00 | 77 | 1014.4 |
| 20260507034524 | 11 | 150 | 4.8 | 8.0 | 0.00 | 0.00 | 0.00 | 78 | 1014.4 |
| 20260507033520 | 11 | 152 | 4.8 | 8.0 | 0.00 | 0.00 | 0.00 | 78 | 1014.3 |
| 20260507032517 | 11 | 152 | 4.8 | 8.0 | 0.00 | 0.00 | 0.00 | 78 | 1014.1 |
| 20260507031532 | 11 | 159 | 6.4 | 8.0 | 0.00 | 0.00 | 0.00 | 78 | 1014.0 |
| 20260507030549 | 11 | 149 | 4.8 | 6.4 | 0.00 | 0.00 | 0.00 | 79 | 1014.0 |
| 20260507025524 | 11 | 146 | 4.8 | 6.4 | 0.00 | 0.00 | 0.00 | 78 | 1014.1 |
| 20260507024521 | 11 | 159 | 6.4 | 8.0 | 0.00 | 0.00 | 0.00 | 78 | 1013.9 |
| 20260507022534 | 11 | 155 | 6.4 | 8.0 | 0.00 | 0.00 | 0.00 | 78 | 1013.9 |
| 20260507021530 | 11 | 142 | 4.8 | 8.0 | 0.00 | 0.00 | 0.00 | 79 | 1014.0 |
| 20260507020525 | 10 | 138 | 4.8 | 6.4 | 0.00 | 0.00 | 0.00 | 80 | 1014.0 |
| 20260507015542 | 10 | 129 | 3.2 | 4.8 | 0.00 | 0.00 | 0.00 | 79 | 1014.0 |
| 20260507014518 | 10 | 109 | 3.2 | 3.2 | 0.00 | 0.00 | 0.00 | 79 | 1013.9 |
| 20260507013535 | 11 | 131 | 3.2 | 4.8 | 0.00 | 0.00 | 0.00 | 78 | 1014.0 |
| 20260507012531 | 11 | 138 | 3.2 | 4.8 | 0.00 | 0.00 | 0.00 | 77 | 1014.0 |
| 20260507011527 | 11 | 123 | 3.2 | 4.8 | 0.00 | 0.00 | 0.00 | 76 | 1013.9 |
| 20260507010523 | 11 | 135 | 3.2 | 4.8 | 0.00 | 0.00 | 0.00 | 75 | 1013.9 |
| 20260507005519 | 11 | 136 | 3.2 | 4.8 | 0.00 | 0.00 | 0.00 | 75 | 1013.8 |
| 20260507004535 | 12 | 105 | 3.2 | 3.2 | 0.00 | 0.00 | 0.00 | 74 | 1013.8 |
| 20260507003532 | 12 | 156 | 3.2 | 4.8 | 0.00 | 0.00 | 0.00 | 74 | 1013.5 |
| 20260507002528 | 12 | 133 | 3.2 | 4.8 | 0.00 | 0.00 | 0.00 | 75 | 1013.7 |
| 20260507001523 | 12 | 106 | 3.2 | 3.2 | 0.00 | 0.00 | 0.00 | 74 | 1013.9 |
| 20260507000521 | 12 | 99 | 3.2 | 4.8 | 0.00 | 0.00 | 0.00 | 72 | 1013.8 |
| 20260506235516 | 12 | 168 | 1.6 | 6.4 | 0.00 | 0.00 | 0.00 | 71 | 1013.9 |
| 20260506234554 | 12 | 161 | 4.8 | 6.4 | 0.00 | 0.00 | 0.00 | 71 | 1013.7 |
| 20260506233529 | 13 | 146 | 3.2 | 4.8 | 0.00 | 0.00 | 0.00 | 71 | 1013.7 |
| 20260506232526 | 13 | 147 | 4.8 | 8.0 | 0.00 | 0.00 | 0.00 | 70 | 1013.6 |
| 20260506231521 | 13 | 141 | 4.8 | 6.4 | 0.00 | 0.00 | 0.00 | 70 | 1013.4 |
| 20260506230517 | 12 | 134 | 3.2 | 4.8 | 0.00 | 0.00 | 0.00 | 72 | 1013.5 |
| 20260506225534 | 13 | 124 | 3.2 | 4.8 | 0.00 | 0.00 | 0.00 | 72 | 1013.3 |
| 20260506224529 | 13 | 113 | 3.2 | 8.0 | 0.00 | 0.00 | 0.00 | 71 | 1013.3 |
| 20260506223526 | 13 | 115 | 3.2 | 6.4 | 0.00 | 0.00 | 0.00 | 70 | 1013.3 |
| 20260506222522 | 13 | 112 | 3.2 | 8.0 | 0.00 | 0.00 | 0.00 | 68 | 1013.1 |
| 20260506221518 | 14 | 113 | 4.8 | 8.0 | 0.00 | 0.00 | 0.00 | 66 | 1013.0 |
| 20260506220534 | 16 | 115 | 4.8 | 6.4 | 0.00 | 0.00 | 0.00 | 61 | 1012.9 |
| 20260506215531 | 16 | 151 | 4.8 | 12.9 | 0.00 | 0.00 | 0.00 | 59 | 1012.9 |
| 20260506214527 | 16 | 156 | 4.8 | 14.5 | 0.00 | 0.00 | 0.00 | 59 | 1012.9 |
| 20260506213524 | 15 | 140 | 3.2 | 4.8 | 0.00 | 0.00 | 0.00 | 61 | 1012.9 |
| 20260506212519 | 15 | 132 | 3.2 | 6.4 | 0.00 | 0.00 | 0.00 | 61 | 1012.8 |
| 20260506211535 | 16 | 119 | 3.2 | 4.8 | 0.00 | 0.00 | 0.00 | 59 | 1012.7 |
| 20260506210532 | 17 | 135 | 3.2 | 8.0 | 0.00 | 0.00 | 0.00 | 57 | 1012.6 |
| 20260506205529 | 17 | 154 | 3.2 | 9.7 | 0.00 | 0.00 | 0.00 | 56 | 1012.4 |
| 20260506204524 | 17 | 148 | 3.2 | 6.4 | 0.00 | 0.00 | 0.00 | 55 | 1012.4 |
| 20260506203521 | 18 | 160 | 4.8 | 9.7 | 0.00 | 0.00 | 0.00 | 54 | 1012.3 |
| 20260506202535 | 18 | 167 | 6.4 | 12.9 | 0.00 | 0.00 | 0.00 | 52 | 1012.4 |
| 20260506201552 | 18 | 177 | 8.0 | 16.1 | 0.00 | 0.00 | 0.00 | 51 | 1012.3 |
| 20260506200548 | 19 | 172 | 8.0 | 17.7 | 0.00 | 0.00 | 0.00 | 51 | 1012.2 |
| 20260506195525 | 19 | 172 | 6.4 | 14.5 | 0.00 | 0.00 | 0.00 | 50 | 1012.2 |
| 20260506194521 | 19 | 175 | 9.7 | 19.3 | 0.00 | 0.00 | 0.00 | 49 | 1012.0 |
| 20260506193517 | 20 | 171 | 8.0 | 14.5 | 0.00 | 0.00 | 0.00 | 48 | 1012.1 |
| 20260506192553 | 20 | 174 | 9.7 | 20.9 | 0.00 | 0.00 | 0.00 | 47 | 1012.0 |
| 20260506191529 | 20 | 170 | 8.0 | 17.7 | 0.00 | 0.00 | 0.00 | 47 | 1012.0 |
| 20260506190526 | 20 | 172 | 8.0 | 17.7 | 0.00 | 0.00 | 0.00 | 46 | 1011.9 |
| 20260506185522 | 20 | 174 | 8.0 | 19.3 | 0.00 | 0.00 | 0.00 | 46 | 1011.9 |
| 20260506184519 | 20 | 173 | 9.7 | 17.7 | 0.00 | 0.00 | 0.00 | 46 | 1011.7 |
| 20260506183555 | 20 | 161 | 6.4 | 12.9 | 0.00 | 0.00 | 0.00 | 47 | 1011.7 |
| 20260506182531 | 20 | 170 | 6.4 | 12.9 | 0.00 | 0.00 | 0.00 | 47 | 1011.6 |
| 20260506181527 | 20 | 169 | 6.4 | 12.9 | 0.00 | 0.00 | 0.00 | 47 | 1011.6 |
| 20260506180523 | 20 | 171 | 6.4 | 14.5 | 0.00 | 0.00 | 0.00 | 46 | 1011.5 |
| 20260506175519 | 21 | 158 | 4.8 | 6.4 | 0.00 | 0.00 | 0.00 | 46 | 1011.3 |
| 20260506174536 | 21 | 173 | 4.8 | 8.0 | 0.00 | 0.00 | 0.00 | 44 | 1011.1 |
| 20260506173532 | 22 | 172 | 6.4 | 11.3 | 0.00 | 0.00 | 0.00 | 42 | 1011.1 |
| 20260506172527 | 22 | 169 | 4.8 | 9.7 | 0.00 | 0.00 | 0.00 | 42 | 1011.0 |
| 20260506171550 | 23 | 178 | 6.4 | 12.9 | 0.00 | 0.00 | 0.00 | 40 | 1011.0 |
| 20260506170520 | 23 | 177 | 4.8 | 11.3 | 0.00 | 0.00 | 0.00 | 40 | 1010.8 |
| 20260506165517 | 24 | 177 | 8.0 | 16.1 | 0.00 | 0.00 | 0.00 | 39 | 1010.8 |
| 20260506164533 | 24 | 182 | 8.0 | 17.7 | 0.00 | 0.00 | 0.00 | 38 | 1010.8 |
| 20260506163529 | 25 | 185 | 6.4 | 20.9 | 0.00 | 0.00 | 0.00 | 37 | 1010.6 |
| 20260506162525 | 25 | 194 | 11.3 | 29.0 | 0.00 | 0.00 | 0.00 | 36 | 1010.7 |
| 20260506161521 | 25 | 186 | 12.9 | 27.4 | 0.00 | 0.00 | 0.00 | 35 | 1010.7 |
| 20260506160517 | 26 | 195 | 17.7 | 37.0 | 0.00 | 0.00 | 0.00 | 34 | 1010.9 |
| 20260506155534 | 26 | 199 | 19.3 | 32.2 | 0.00 | 0.00 | 0.00 | 34 | 1011.0 |
| 20260506154531 | 26 | 194 | 17.7 | 29.0 | 0.00 | 0.00 | 0.00 | 34 | 1011.0 |
| 20260506153526 | 27 | 194 | 11.3 | 24.1 | 0.00 | 0.00 | 0.00 | 32 | 1011.0 |
| 20260506152527 | 27 | 190 | 8.0 | 17.7 | 0.00 | 0.00 | 0.00 | 31 | 1011.0 |
| 20260506151518 | 27 | 191 | 12.9 | 20.9 | 0.00 | 0.00 | 0.00 | 30 | 1011.1 |
| 20260506150536 | 27 | 189 | 9.7 | 20.9 | 0.00 | 0.00 | 0.00 | 32 | 1011.1 |
| 20260506145552 | 27 | 181 | 8.0 | 17.7 | 0.00 | 0.00 | 0.00 | 31 | 1011.0 |
| 20260506144528 | 27 | 177 | 4.8 | 16.1 | 0.00 | 0.00 | 0.00 | 31 | 1011.0 |
| 20260506143522 | 27 | 180 | 4.8 | 11.3 | 0.00 | 0.00 | 0.00 | 30 | 1011.1 |
| 20260506142539 | 27 | 162 | 6.4 | 17.7 | 0.00 | 0.00 | 0.00 | 29 | 1010.9 |
| 20260506141555 | 27 | 182 | 4.8 | 14.5 | 0.00 | 0.00 | 0.00 | 31 | 1011.0 |
| 20260506140532 | 28 | 182 | 4.8 | 17.7 | 0.00 | 0.00 | 0.00 | 31 | 1011.0 |
| 20260506135528 | 28 | 176 | 4.8 | 17.7 | 0.00 | 0.00 | 0.00 | 30 | 1010.9 |
| 20260506134525 | 28 | 186 | 4.8 | 17.7 | 0.00 | 0.00 | 0.00 | 30 | 1010.9 |
| 20260506133520 | 28 | 178 | 6.4 | 9.7 | 0.00 | 0.00 | 0.00 | 29 | 1011.0 |
| 20260506132516 | 28 | 181 | 4.8 | 11.3 | 0.00 | 0.00 | 0.00 | 28 | 1011.1 |
| 20260506131533 | 28 | 191 | 4.8 | 17.7 | 0.00 | 0.00 | 0.00 | 29 | 1011.0 |
| 20260506130529 | 28 | 188 | 6.4 | 16.1 | 0.00 | 0.00 | 0.00 | 27 | 1011.2 |
| 20260506125526 | 27 | 189 | 6.4 | 17.7 | 0.00 | 0.00 | 0.00 | 28 | 1011.2 |
| 20260506124521 | 28 | 187 | 9.7 | 20.9 | 0.00 | 0.00 | 0.00 | 27 | 1011.4 |
| 20260506123542 | 28 | 190 | 6.4 | 17.7 | 0.00 | 0.00 | 0.00 | 28 | 1011.5 |
| 20260506122534 | 27 | 198 | 8.0 | 19.3 | 0.00 | 0.00 | 0.00 | 28 | 1011.7 |
| 20260506121550 | 28 | 194 | 9.7 | 19.3 | 0.00 | 0.00 | 0.00 | 27 | 1011.8 |
| 20260506120531 | 27 | 181 | 6.4 | 20.9 | 0.00 | 0.00 | 0.00 | 28 | 1011.8 |
| 20260506115523 | 27 | 193 | 9.7 | 22.5 | 0.00 | 0.00 | 0.00 | 27 | 1011.9 |
| 20260506114543 | 27 | 195 | 11.3 | 25.7 | 0.00 | 0.00 | 0.00 | 26 | 1012.1 |
| 20260506113534 | 28 | 186 | 8.0 | 22.5 | 0.00 | 0.00 | 0.00 | 27 | 1012.1 |
| 20260506112531 | 27 | 185 | 8.0 | 22.5 | 0.00 | 0.00 | 0.00 | 28 | 1012.2 |
| 20260506111528 | 27 | 188 | 12.9 | 29.0 | 0.00 | 0.00 | 0.00 | 27 | 1012.3 |
| 20260506110545 | 27 | 189 | 9.7 | 20.9 | 0.00 | 0.00 | 0.00 | 28 | 1012.5 |
| 20260506105540 | 27 | 193 | 11.3 | 27.4 | 0.00 | 0.00 | 0.00 | 28 | 1012.6 |
| 20260506104536 | 27 | 188 | 9.7 | 22.5 | 0.00 | 0.00 | 0.00 | 28 | 1012.7 |
| 20260506103531 | 27 | 192 | 6.4 | 16.1 | 0.00 | 0.00 | 0.00 | 36 | 1012.8 |
| 20260506102528 | 27 | 201 | 8.0 | 19.3 | 0.00 | 0.00 | 0.00 | 34 | 1012.9 |
| 20260506101524 | 26 | 181 | 6.4 | 24.1 | 0.00 | 0.00 | 0.00 | 41 | 1012.9 |
| 20260506100521 | 26 | 199 | 4.8 | 11.3 | 0.00 | 0.00 | 0.00 | 41 | 1012.8 |
| 20260506095517 | 26 | 185 | 3.2 | 9.7 | 0.00 | 0.00 | 0.00 | 42 | 1012.9 |
| 20260506094552 | 26 | 183 | 4.8 | 11.3 | 0.00 | 0.00 | 0.00 | 43 | 1013.2 |
| 20260506093529 | 25 | 186 | 6.4 | 14.5 | 0.00 | 0.00 | 0.00 | 44 | 1013.2 |
| 20260506092545 | 25 | 170 | 3.2 | 8.0 | 0.00 | 0.00 | 0.00 | 46 | 1013.3 |
| 20260506091522 | 24 | 179 | 3.2 | 12.9 | 0.00 | 0.00 | 0.00 | 45 | 1013.4 |
| 20260506090538 | 23 | 205 | 1.6 | 8.0 | 0.00 | 0.00 | 0.00 | 48 | 1013.4 |
| 20260506085534 | 23 | 198 | 3.2 | 9.7 | 0.00 | 0.00 | 0.00 | 48 | 1013.4 |
| 20260506084529 | 23 | 171 | 3.2 | 8.0 | 0.00 | 0.00 | 0.00 | 50 | 1013.4 |
| 20260506083526 | 23 | 103 | 3.2 | 11.3 | 0.00 | 0.00 | 0.00 | 50 | 1013.4 |
| 20260506082523 | 22 | 124 | 3.2 | 9.7 | 0.00 | 0.00 | 0.00 | 50 | 1013.5 |
| 20260506081519 | 22 | 159 | 1.6 | 6.4 | 0.00 | 0.00 | 0.00 | 50 | 1013.5 |
| 20260506080535 | 21 | 162 | 1.6 | 6.4 | 0.00 | 0.00 | 0.00 | 50 | 1013.5 |